owner,sensor,date,latitude,longitude,vertical_datum,sea_water_practical_salinity,qcFlag 
WAVCIS,ioos:station:WAVCIS:CSI16:2,2011-08-01T00:00:00Z,29.4012,-89.0355,1.0,28.056,11111222 
WAVCIS,ioos:station:WAVCIS:CSI16:2,2011-08-01T00:15:00Z,29.4012,-89.0355,1.0,31.1,11111222 
WAVCIS,ioos:station:WAVCIS:CSI16:2,2011-08-01T00:30:00Z,29.4012,-89.0355,1.0,29.798,11111222 
WAVCIS,ioos:station:WAVCIS:CSI16:2,2011-08-01T00:45:00Z,29.4012,-89.0355,1.0,27.555,11111222 
WAVCIS,ioos:station:WAVCIS:CSI16:2,2011-08-01T01:00:00Z,29.4012,-89.0355,1.0,27.891,11111222 
WAVCIS,ioos:station:WAVCIS:CSI16:2,2011-08-01T01:15:00Z,29.4012,-89.0355,1.0,28.27,11111222 
WAVCIS,ioos:station:WAVCIS:CSI16:2,2011-08-01T01:30:00Z,29.4012,-89.0355,1.0,27.566,11111222 
WAVCIS,ioos:station:WAVCIS:CSI16:2,2011-08-01T01:45:00Z,29.4012,-89.0355,1.0,27.298,11111222 
WAVCIS,ioos:station:WAVCIS:CSI16:2,2011-08-01T02:00:00Z,29.4012,-89.0355,1.0,27.535,11111222 
WAVCIS,ioos:station:WAVCIS:CSI16:2,2011-08-01T02:15:00Z,29.4012,-89.0355,1.0,26.686,11111222 
WAVCIS,ioos:station:WAVCIS:CSI16:2,2011-08-01T02:30:00Z,29.4012,-89.0355,1.0,26.665,11111222 
WAVCIS,ioos:station:WAVCIS:CSI16:2,2011-08-01T02:45:00Z,29.4012,-89.0355,1.0,27.26,11111222 
WAVCIS,ioos:station:WAVCIS:CSI16:2,2011-08-01T03:00:00Z,29.4012,-89.0355,1.0,26.885,11111222 
WAVCIS,ioos:station:WAVCIS:CSI16:2,2011-08-01T03:15:00Z,29.4012,-89.0355,1.0,26.915,11111222 
WAVCIS,ioos:station:WAVCIS:CSI16:2,2011-08-01T03:30:00Z,29.4012,-89.0355,1.0,27.131,11111222 
WAVCIS,ioos:station:WAVCIS:CSI16:2,2011-08-01T03:45:00Z,29.4012,-89.0355,1.0,26.812,11111222 
WAVCIS,ioos:station:WAVCIS:CSI16:2,2011-08-01T04:00:00Z,29.4012,-89.0355,1.0,27.042,11111222 
WAVCIS,ioos:station:WAVCIS:CSI16:2,2011-08-01T04:15:00Z,29.4012,-89.0355,1.0,27.056,11111222 
WAVCIS,ioos:station:WAVCIS:CSI16:2,2011-08-01T04:30:00Z,29.4012,-89.0355,1.0,27.239,11111222 
WAVCIS,ioos:station:WAVCIS:CSI16:2,2011-08-01T04:45:00Z,29.4012,-89.0355,1.0,27.384,11111222 
WAVCIS,ioos:station:WAVCIS:CSI16:2,2011-08-01T05:00:00Z,29.4012,-89.0355,1.0,27.56,11111222 
WAVCIS,ioos:station:WAVCIS:CSI16:2,2011-08-01T05:15:00Z,29.4012,-89.0355,1.0,27.399,11111222 
WAVCIS,ioos:station:WAVCIS:CSI16:2,2011-08-01T05:30:00Z,29.4012,-89.0355,1.0,27.709,11111222 
WAVCIS,ioos:station:WAVCIS:CSI16:2,2011-08-01T05:45:00Z,29.4012,-89.0355,1.0,27.959,11111222 
WAVCIS,ioos:station:WAVCIS:CSI16:2,2011-08-01T06:00:00Z,29.4012,-89.0355,1.0,28.546,11111222 
WAVCIS,ioos:station:WAVCIS:CSI16:2,2011-08-01T06:15:00Z,29.4012,-89.0355,1.0,28.879,11111222 
WAVCIS,ioos:station:WAVCIS:CSI16:2,2011-08-01T06:30:00Z,29.4012,-89.0355,1.0,28.191,11111222 
WAVCIS,ioos:station:WAVCIS:CSI16:2,2011-08-01T06:45:00Z,29.4012,-89.0355,1.0,29.007,11111222 
WAVCIS,ioos:station:WAVCIS:CSI16:2,2011-08-01T07:00:00Z,29.4012,-89.0355,1.0,29.639,11111222 
WAVCIS,ioos:station:WAVCIS:CSI16:2,2011-08-01T07:15:00Z,29.4012,-89.0355,1.0,30.322,11111222 
WAVCIS,ioos:station:WAVCIS:CSI16:2,2011-08-01T07:30:00Z,29.4012,-89.0355,1.0,30.972,11111222 
WAVCIS,ioos:station:WAVCIS:CSI16:2,2011-08-01T07:45:00Z,29.4012,-89.0355,1.0,30.676,11111222 
WAVCIS,ioos:station:WAVCIS:CSI16:2,2011-08-01T08:00:00Z,29.4012,-89.0355,1.0,30.437,11111222 
WAVCIS,ioos:station:WAVCIS:CSI16:2,2011-08-01T08:15:00Z,29.4012,-89.0355,1.0,32.783,11111222 
WAVCIS,ioos:station:WAVCIS:CSI16:2,2011-08-01T08:30:00Z,29.4012,-89.0355,1.0,32.766,11111222 
WAVCIS,ioos:station:WAVCIS:CSI16:2,2011-08-01T08:45:00Z,29.4012,-89.0355,1.0,32.776,11111222 
WAVCIS,ioos:station:WAVCIS:CSI16:2,2011-08-01T09:00:00Z,29.4012,-89.0355,1.0,32.928,11111222 
WAVCIS,ioos:station:WAVCIS:CSI16:2,2011-08-01T09:15:00Z,29.4012,-89.0355,1.0,33.108,11111222 
WAVCIS,ioos:station:WAVCIS:CSI16:2,2011-08-01T09:30:00Z,29.4012,-89.0355,1.0,33.738,11111222 
WAVCIS,ioos:station:WAVCIS:CSI16:2,2011-08-01T09:45:00Z,29.4012,-89.0355,1.0,33.775,11111222 
WAVCIS,ioos:station:WAVCIS:CSI16:2,2011-08-01T10:00:00Z,29.4012,-89.0355,1.0,33.948,11111222 
WAVCIS,ioos:station:WAVCIS:CSI16:2,2011-08-01T10:15:00Z,29.4012,-89.0355,1.0,34.068,11111222 
WAVCIS,ioos:station:WAVCIS:CSI16:2,2011-08-01T10:30:00Z,29.4012,-89.0355,1.0,34.412,11111222 
WAVCIS,ioos:station:WAVCIS:CSI16:2,2011-08-01T10:45:00Z,29.4012,-89.0355,1.0,34.469,11111222 
WAVCIS,ioos:station:WAVCIS:CSI16:2,2011-08-01T11:00:00Z,29.4012,-89.0355,1.0,34.36,11111222 
WAVCIS,ioos:station:WAVCIS:CSI16:2,2011-08-01T11:15:00Z,29.4012,-89.0355,1.0,34.456,11111222 
WAVCIS,ioos:station:WAVCIS:CSI16:2,2011-08-01T11:30:00Z,29.4012,-89.0355,1.0,34.558,11111222 
WAVCIS,ioos:station:WAVCIS:CSI16:2,2011-08-01T11:45:00Z,29.4012,-89.0355,1.0,34.744,11111222 
WAVCIS,ioos:station:WAVCIS:CSI16:2,2011-08-01T12:00:00Z,29.4012,-89.0355,1.0,34.764,11111222 
WAVCIS,ioos:station:WAVCIS:CSI16:2,2011-08-01T12:15:00Z,29.4012,-89.0355,1.0,34.798,11111222 
WAVCIS,ioos:station:WAVCIS:CSI16:2,2011-08-01T12:30:00Z,29.4012,-89.0355,1.0,34.809,11111222 
WAVCIS,ioos:station:WAVCIS:CSI16:2,2011-08-01T12:45:00Z,29.4012,-89.0355,1.0,34.585,11111222 
WAVCIS,ioos:station:WAVCIS:CSI16:2,2011-08-01T13:00:00Z,29.4012,-89.0355,1.0,34.549,11111222 
WAVCIS,ioos:station:WAVCIS:CSI16:2,2011-08-01T13:15:00Z,29.4012,-89.0355,1.0,34.884,11111222 
WAVCIS,ioos:station:WAVCIS:CSI16:2,2011-08-01T13:30:00Z,29.4012,-89.0355,1.0,34.841,11111222 
WAVCIS,ioos:station:WAVCIS:CSI16:2,2011-08-01T13:45:00Z,29.4012,-89.0355,1.0,34.843,11111222 
WAVCIS,ioos:station:WAVCIS:CSI16:2,2011-08-01T14:00:00Z,29.4012,-89.0355,1.0,34.88,11111222 
WAVCIS,ioos:station:WAVCIS:CSI16:2,2011-08-01T14:15:00Z,29.4012,-89.0355,1.0,34.882,11111222 
WAVCIS,ioos:station:WAVCIS:CSI16:2,2011-08-01T14:30:00Z,29.4012,-89.0355,1.0,34.866,11111222 
WAVCIS,ioos:station:WAVCIS:CSI16:2,2011-08-01T14:45:00Z,29.4012,-89.0355,1.0,34.878,11111222 
WAVCIS,ioos:station:WAVCIS:CSI16:2,2011-08-01T15:00:00Z,29.4012,-89.0355,1.0,34.862,11111222 
WAVCIS,ioos:station:WAVCIS:CSI16:2,2011-08-01T15:15:00Z,29.4012,-89.0355,1.0,34.857,11111222 
WAVCIS,ioos:station:WAVCIS:CSI16:2,2011-08-01T15:30:00Z,29.4012,-89.0355,1.0,34.848,11111222 
WAVCIS,ioos:station:WAVCIS:CSI16:2,2011-08-01T15:45:00Z,29.4012,-89.0355,1.0,34.848,11111222 
WAVCIS,ioos:station:WAVCIS:CSI16:2,2011-08-01T16:00:00Z,29.4012,-89.0355,1.0,33.932,11111222 
WAVCIS,ioos:station:WAVCIS:CSI16:2,2011-08-01T16:15:00Z,29.4012,-89.0355,1.0,34.794,11111222 
WAVCIS,ioos:station:WAVCIS:CSI16:2,2011-08-01T16:30:00Z,29.4012,-89.0355,1.0,34.882,11111222 
WAVCIS,ioos:station:WAVCIS:CSI16:2,2011-08-01T16:45:00Z,29.4012,-89.0355,1.0,34.887,11111222 
WAVCIS,ioos:station:WAVCIS:CSI16:2,2011-08-01T17:00:00Z,29.4012,-89.0355,1.0,34.906,11111222 
WAVCIS,ioos:station:WAVCIS:CSI16:2,2011-08-01T17:15:00Z,29.4012,-89.0355,1.0,34.925,11111222 
WAVCIS,ioos:station:WAVCIS:CSI16:2,2011-08-01T17:30:00Z,29.4012,-89.0355,1.0,34.927,11111222 
WAVCIS,ioos:station:WAVCIS:CSI16:2,2011-08-01T17:45:00Z,29.4012,-89.0355,1.0,34.292,11111222 
WAVCIS,ioos:station:WAVCIS:CSI16:2,2011-08-01T18:00:00Z,29.4012,-89.0355,1.0,34.927,11111222 
WAVCIS,ioos:station:WAVCIS:CSI16:2,2011-08-01T18:15:00Z,29.4012,-89.0355,1.0,34.996,11111222 
WAVCIS,ioos:station:WAVCIS:CSI16:2,2011-08-01T18:30:00Z,29.4012,-89.0355,1.0,34.849,11111222 
WAVCIS,ioos:station:WAVCIS:CSI16:2,2011-08-01T18:45:00Z,29.4012,-89.0355,1.0,35.016,11111222 
WAVCIS,ioos:station:WAVCIS:CSI16:2,2011-08-01T19:00:00Z,29.4012,-89.0355,1.0,35.035,11111222 
WAVCIS,ioos:station:WAVCIS:CSI16:2,2011-08-01T19:15:00Z,29.4012,-89.0355,1.0,34.964,11111222 
WAVCIS,ioos:station:WAVCIS:CSI16:2,2011-08-01T19:30:00Z,29.4012,-89.0355,1.0,34.912,11111222 
WAVCIS,ioos:station:WAVCIS:CSI16:2,2011-08-01T19:45:00Z,29.4012,-89.0355,1.0,34.844,11111222 
WAVCIS,ioos:station:WAVCIS:CSI16:2,2011-08-01T20:00:00Z,29.4012,-89.0355,1.0,34.797,11111222 
WAVCIS,ioos:station:WAVCIS:CSI16:2,2011-08-01T20:15:00Z,29.4012,-89.0355,1.0,33.848,11111222 
WAVCIS,ioos:station:WAVCIS:CSI16:2,2011-08-01T20:30:00Z,29.4012,-89.0355,1.0,33.723,11111222 
WAVCIS,ioos:station:WAVCIS:CSI16:2,2011-08-01T20:45:00Z,29.4012,-89.0355,1.0,34.287,11111222 
WAVCIS,ioos:station:WAVCIS:CSI16:2,2011-08-01T21:00:00Z,29.4012,-89.0355,1.0,34.009,11111222 
WAVCIS,ioos:station:WAVCIS:CSI16:2,2011-08-01T21:15:00Z,29.4012,-89.0355,1.0,34.11,11111222 
WAVCIS,ioos:station:WAVCIS:CSI16:2,2011-08-01T21:30:00Z,29.4012,-89.0355,1.0,32.832,11111222 
WAVCIS,ioos:station:WAVCIS:CSI16:2,2011-08-01T21:45:00Z,29.4012,-89.0355,1.0,32.451,11111222 
WAVCIS,ioos:station:WAVCIS:CSI16:2,2011-08-01T22:00:00Z,29.4012,-89.0355,1.0,32.089,11111222 
WAVCIS,ioos:station:WAVCIS:CSI16:2,2011-08-01T22:15:00Z,29.4012,-89.0355,1.0,31.013,11111222 
WAVCIS,ioos:station:WAVCIS:CSI16:2,2011-08-01T22:30:00Z,29.4012,-89.0355,1.0,29.301,11111222 
WAVCIS,ioos:station:WAVCIS:CSI16:2,2011-08-01T22:45:00Z,29.4012,-89.0355,1.0,29.046,11111222 
WAVCIS,ioos:station:WAVCIS:CSI16:2,2011-08-01T23:00:00Z,29.4012,-89.0355,1.0,28.752,11111222 
WAVCIS,ioos:station:WAVCIS:CSI16:2,2011-08-01T23:15:00Z,29.4012,-89.0355,1.0,28.574,11111222 
WAVCIS,ioos:station:WAVCIS:CSI16:2,2011-08-01T23:30:00Z,29.4012,-89.0355,1.0,28.567,11111222 
WAVCIS,ioos:station:WAVCIS:CSI16:2,2011-08-01T23:45:00Z,29.4012,-89.0355,1.0,27.914,11111222 
WAVCIS,ioos:station:WAVCIS:CSI16:2,2011-08-02T00:00:00Z,29.4012,-89.0355,1.0,27.823,11111222 
WAVCIS,ioos:station:WAVCIS:CSI16:2,2011-08-02T00:15:00Z,29.4012,-89.0355,1.0,27.828,11111222 
WAVCIS,ioos:station:WAVCIS:CSI16:2,2011-08-02T00:30:00Z,29.4012,-89.0355,1.0,27.676,11111222 
WAVCIS,ioos:station:WAVCIS:CSI16:2,2011-08-02T00:45:00Z,29.4012,-89.0355,1.0,27.22,11111222 
WAVCIS,ioos:station:WAVCIS:CSI16:2,2011-08-02T01:00:00Z,29.4012,-89.0355,1.0,27.177,11111222 
WAVCIS,ioos:station:WAVCIS:CSI16:2,2011-08-02T01:15:00Z,29.4012,-89.0355,1.0,26.967,11111222 
WAVCIS,ioos:station:WAVCIS:CSI16:2,2011-08-02T01:30:00Z,29.4012,-89.0355,1.0,27.236,11111222 
WAVCIS,ioos:station:WAVCIS:CSI16:2,2011-08-02T01:45:00Z,29.4012,-89.0355,1.0,27.307,11111222 
WAVCIS,ioos:station:WAVCIS:CSI16:2,2011-08-02T02:00:00Z,29.4012,-89.0355,1.0,27.387,11111222 
WAVCIS,ioos:station:WAVCIS:CSI16:2,2011-08-02T02:15:00Z,29.4012,-89.0355,1.0,27.644,11111222 
WAVCIS,ioos:station:WAVCIS:CSI16:2,2011-08-02T02:30:00Z,29.4012,-89.0355,1.0,27.62,11111222 
WAVCIS,ioos:station:WAVCIS:CSI16:2,2011-08-02T02:45:00Z,29.4012,-89.0355,1.0,28.298,11111222 
WAVCIS,ioos:station:WAVCIS:CSI16:2,2011-08-02T03:00:00Z,29.4012,-89.0355,1.0,28.686,11111222 
WAVCIS,ioos:station:WAVCIS:CSI16:2,2011-08-02T03:15:00Z,29.4012,-89.0355,1.0,28.781,11111222 
WAVCIS,ioos:station:WAVCIS:CSI16:2,2011-08-02T03:30:00Z,29.4012,-89.0355,1.0,29.25,11111222 
WAVCIS,ioos:station:WAVCIS:CSI16:2,2011-08-02T03:45:00Z,29.4012,-89.0355,1.0,28.701,11111222 
WAVCIS,ioos:station:WAVCIS:CSI16:2,2011-08-02T04:00:00Z,29.4012,-89.0355,1.0,28.886,11111222 
WAVCIS,ioos:station:WAVCIS:CSI16:2,2011-08-02T04:15:00Z,29.4012,-89.0355,1.0,30.674,11111222 
WAVCIS,ioos:station:WAVCIS:CSI16:2,2011-08-02T04:30:00Z,29.4012,-89.0355,1.0,29.611,11111222 
WAVCIS,ioos:station:WAVCIS:CSI16:2,2011-08-02T04:45:00Z,29.4012,-89.0355,1.0,27.246,11111222 
WAVCIS,ioos:station:WAVCIS:CSI16:2,2011-08-02T05:00:00Z,29.4012,-89.0355,1.0,29.358,11111222 
WAVCIS,ioos:station:WAVCIS:CSI16:2,2011-08-02T05:15:00Z,29.4012,-89.0355,1.0,30.107,11111222 
WAVCIS,ioos:station:WAVCIS:CSI16:2,2011-08-02T05:30:00Z,29.4012,-89.0355,1.0,30.205,11111222 
WAVCIS,ioos:station:WAVCIS:CSI16:2,2011-08-02T05:45:00Z,29.4012,-89.0355,1.0,31.292,11111222 
WAVCIS,ioos:station:WAVCIS:CSI16:2,2011-08-02T06:00:00Z,29.4012,-89.0355,1.0,31.548,11111222 
WAVCIS,ioos:station:WAVCIS:CSI16:2,2011-08-02T06:15:00Z,29.4012,-89.0355,1.0,32.138,11111222 
WAVCIS,ioos:station:WAVCIS:CSI16:2,2011-08-02T06:30:00Z,29.4012,-89.0355,1.0,33.243,11111222 
WAVCIS,ioos:station:WAVCIS:CSI16:2,2011-08-02T06:45:00Z,29.4012,-89.0355,1.0,33.258,11111222 
WAVCIS,ioos:station:WAVCIS:CSI16:2,2011-08-02T07:00:00Z,29.4012,-89.0355,1.0,33.665,11111222 
WAVCIS,ioos:station:WAVCIS:CSI16:2,2011-08-02T07:15:00Z,29.4012,-89.0355,1.0,33.739,11111222 
WAVCIS,ioos:station:WAVCIS:CSI16:2,2011-08-02T07:30:00Z,29.4012,-89.0355,1.0,33.895,11111222 
WAVCIS,ioos:station:WAVCIS:CSI16:2,2011-08-02T07:45:00Z,29.4012,-89.0355,1.0,33.379,11111222 
WAVCIS,ioos:station:WAVCIS:CSI16:2,2011-08-02T08:00:00Z,29.4012,-89.0355,1.0,33.493,11111222 
WAVCIS,ioos:station:WAVCIS:CSI16:2,2011-08-02T08:15:00Z,29.4012,-89.0355,1.0,33.555,11111222 
WAVCIS,ioos:station:WAVCIS:CSI16:2,2011-08-02T08:30:00Z,29.4012,-89.0355,1.0,33.788,11111222 
WAVCIS,ioos:station:WAVCIS:CSI16:2,2011-08-02T08:45:00Z,29.4012,-89.0355,1.0,33.888,11111222 
WAVCIS,ioos:station:WAVCIS:CSI16:2,2011-08-02T09:00:00Z,29.4012,-89.0355,1.0,33.838,11111222 
WAVCIS,ioos:station:WAVCIS:CSI16:2,2011-08-02T09:15:00Z,29.4012,-89.0355,1.0,33.917,11111222 
WAVCIS,ioos:station:WAVCIS:CSI16:2,2011-08-02T09:30:00Z,29.4012,-89.0355,1.0,33.901,11111222 
WAVCIS,ioos:station:WAVCIS:CSI16:2,2011-08-02T09:45:00Z,29.4012,-89.0355,1.0,33.875,11111222 
WAVCIS,ioos:station:WAVCIS:CSI16:2,2011-08-02T10:00:00Z,29.4012,-89.0355,1.0,33.96,11111222 
WAVCIS,ioos:station:WAVCIS:CSI16:2,2011-08-02T10:15:00Z,29.4012,-89.0355,1.0,34.102,11111222 
WAVCIS,ioos:station:WAVCIS:CSI16:2,2011-08-02T10:30:00Z,29.4012,-89.0355,1.0,34.209,11111222 
WAVCIS,ioos:station:WAVCIS:CSI16:2,2011-08-02T10:45:00Z,29.4012,-89.0355,1.0,34.19,11111222 
WAVCIS,ioos:station:WAVCIS:CSI16:2,2011-08-02T11:00:00Z,29.4012,-89.0355,1.0,34.262,11111222 
WAVCIS,ioos:station:WAVCIS:CSI16:2,2011-08-02T11:15:00Z,29.4012,-89.0355,1.0,34.244,11111222 
WAVCIS,ioos:station:WAVCIS:CSI16:2,2011-08-02T11:30:00Z,29.4012,-89.0355,1.0,34.343,11111222 
WAVCIS,ioos:station:WAVCIS:CSI16:2,2011-08-02T11:45:00Z,29.4012,-89.0355,1.0,34.405,11111222 
WAVCIS,ioos:station:WAVCIS:CSI16:2,2011-08-02T12:00:00Z,29.4012,-89.0355,1.0,34.508,11111222 
WAVCIS,ioos:station:WAVCIS:CSI16:2,2011-08-02T12:15:00Z,29.4012,-89.0355,1.0,34.497,11111222 
WAVCIS,ioos:station:WAVCIS:CSI16:2,2011-08-02T12:30:00Z,29.4012,-89.0355,1.0,34.497,11111222 
WAVCIS,ioos:station:WAVCIS:CSI16:2,2011-08-02T12:45:00Z,29.4012,-89.0355,1.0,34.483,11111222 
WAVCIS,ioos:station:WAVCIS:CSI16:2,2011-08-02T13:00:00Z,29.4012,-89.0355,1.0,34.491,11111222 
WAVCIS,ioos:station:WAVCIS:CSI16:2,2011-08-02T13:15:00Z,29.4012,-89.0355,1.0,33.53,11111222 
WAVCIS,ioos:station:WAVCIS:CSI16:2,2011-08-02T13:30:00Z,29.4012,-89.0355,1.0,30.923,11111222 
WAVCIS,ioos:station:WAVCIS:CSI16:2,2011-08-02T13:45:00Z,29.4012,-89.0355,1.0,34.508,11111222 
WAVCIS,ioos:station:WAVCIS:CSI16:2,2011-08-02T14:00:00Z,29.4012,-89.0355,1.0,34.281,11111222 
WAVCIS,ioos:station:WAVCIS:CSI16:2,2011-08-02T14:15:00Z,29.4012,-89.0355,1.0,34.584,11111222 
WAVCIS,ioos:station:WAVCIS:CSI16:2,2011-08-02T14:30:00Z,29.4012,-89.0355,1.0,34.797,11111222 
WAVCIS,ioos:station:WAVCIS:CSI16:2,2011-08-02T14:45:00Z,29.4012,-89.0355,1.0,34.864,11111222 
WAVCIS,ioos:station:WAVCIS:CSI16:2,2011-08-02T15:00:00Z,29.4012,-89.0355,1.0,34.917,11111222 
WAVCIS,ioos:station:WAVCIS:CSI16:2,2011-08-02T15:15:00Z,29.4012,-89.0355,1.0,34.954,11111222 
WAVCIS,ioos:station:WAVCIS:CSI16:2,2011-08-02T15:30:00Z,29.4012,-89.0355,1.0,34.992,11111222 
WAVCIS,ioos:station:WAVCIS:CSI16:2,2011-08-02T15:45:00Z,29.4012,-89.0355,1.0,35.014,11111222 
WAVCIS,ioos:station:WAVCIS:CSI16:2,2011-08-02T16:00:00Z,29.4012,-89.0355,1.0,35.045,11111222 
WAVCIS,ioos:station:WAVCIS:CSI16:2,2011-08-02T16:15:00Z,29.4012,-89.0355,1.0,35.058,11111222 
WAVCIS,ioos:station:WAVCIS:CSI16:2,2011-08-02T16:30:00Z,29.4012,-89.0355,1.0,35.068,11111222 
WAVCIS,ioos:station:WAVCIS:CSI16:2,2011-08-02T16:45:00Z,29.4012,-89.0355,1.0,35.078,11111222 
WAVCIS,ioos:station:WAVCIS:CSI16:2,2011-08-02T17:00:00Z,29.4012,-89.0355,1.0,35.082,11111222 
WAVCIS,ioos:station:WAVCIS:CSI16:2,2011-08-02T17:15:00Z,29.4012,-89.0355,1.0,35.091,11111222 
WAVCIS,ioos:station:WAVCIS:CSI16:2,2011-08-02T17:30:00Z,29.4012,-89.0355,1.0,35.101,11111222 
WAVCIS,ioos:station:WAVCIS:CSI16:2,2011-08-02T17:45:00Z,29.4012,-89.0355,1.0,35.095,11111222 
WAVCIS,ioos:station:WAVCIS:CSI16:2,2011-08-02T18:00:00Z,29.4012,-89.0355,1.0,35.097,11111222 
WAVCIS,ioos:station:WAVCIS:CSI16:2,2011-08-02T18:15:00Z,29.4012,-89.0355,1.0,35.103,11111222 
WAVCIS,ioos:station:WAVCIS:CSI16:2,2011-08-02T18:30:00Z,29.4012,-89.0355,1.0,35.109,11111222 
WAVCIS,ioos:station:WAVCIS:CSI16:2,2011-08-02T18:45:00Z,29.4012,-89.0355,1.0,35.114,11111222 
WAVCIS,ioos:station:WAVCIS:CSI16:2,2011-08-02T19:00:00Z,29.4012,-89.0355,1.0,35.12,11111222 
WAVCIS,ioos:station:WAVCIS:CSI16:2,2011-08-02T19:15:00Z,29.4012,-89.0355,1.0,35.121,11111222 
WAVCIS,ioos:station:WAVCIS:CSI16:2,2011-08-02T19:30:00Z,29.4012,-89.0355,1.0,35.122,11111222 
WAVCIS,ioos:station:WAVCIS:CSI16:2,2011-08-02T19:45:00Z,29.4012,-89.0355,1.0,35.119,11111222 
WAVCIS,ioos:station:WAVCIS:CSI16:2,2011-08-02T20:00:00Z,29.4012,-89.0355,1.0,35.105,11111222 
WAVCIS,ioos:station:WAVCIS:CSI16:2,2011-08-02T20:15:00Z,29.4012,-89.0355,1.0,34.992,11111222 
WAVCIS,ioos:station:WAVCIS:CSI16:2,2011-08-02T20:30:00Z,29.4012,-89.0355,1.0,34.977,11111222 
WAVCIS,ioos:station:WAVCIS:CSI16:2,2011-08-02T20:45:00Z,29.4012,-89.0355,1.0,34.943,11111222 
WAVCIS,ioos:station:WAVCIS:CSI16:2,2011-08-02T21:00:00Z,29.4012,-89.0355,1.0,34.846,11111222 
WAVCIS,ioos:station:WAVCIS:CSI16:2,2011-08-02T21:15:00Z,29.4012,-89.0355,1.0,34.733,11111222 
WAVCIS,ioos:station:WAVCIS:CSI16:2,2011-08-02T21:30:00Z,29.4012,-89.0355,1.0,34.658,11111222 
WAVCIS,ioos:station:WAVCIS:CSI16:2,2011-08-02T21:45:00Z,29.4012,-89.0355,1.0,34.485,11111222 
WAVCIS,ioos:station:WAVCIS:CSI16:2,2011-08-02T22:00:00Z,29.4012,-89.0355,1.0,33.386,11111222 
WAVCIS,ioos:station:WAVCIS:CSI16:2,2011-08-02T22:15:00Z,29.4012,-89.0355,1.0,33.334,11111222 
WAVCIS,ioos:station:WAVCIS:CSI16:2,2011-08-02T22:30:00Z,29.4012,-89.0355,1.0,33.019,11111222 
WAVCIS,ioos:station:WAVCIS:CSI16:2,2011-08-02T22:45:00Z,29.4012,-89.0355,1.0,32.685,11111222 
WAVCIS,ioos:station:WAVCIS:CSI16:2,2011-08-02T23:00:00Z,29.4012,-89.0355,1.0,31.624,11111222 
WAVCIS,ioos:station:WAVCIS:CSI16:2,2011-08-02T23:15:00Z,29.4012,-89.0355,1.0,31.789,11111222 
WAVCIS,ioos:station:WAVCIS:CSI16:2,2011-08-02T23:30:00Z,29.4012,-89.0355,1.0,31.541,11111222 
WAVCIS,ioos:station:WAVCIS:CSI16:2,2011-08-02T23:45:00Z,29.4012,-89.0355,1.0,31.202,11111222 
WAVCIS,ioos:station:WAVCIS:CSI16:2,2011-08-03T00:00:00Z,29.4012,-89.0355,1.0,30.538,11111222 
WAVCIS,ioos:station:WAVCIS:CSI16:2,2011-08-03T00:15:00Z,29.4012,-89.0355,1.0,30.858,11111222 
WAVCIS,ioos:station:WAVCIS:CSI16:2,2011-08-03T00:30:00Z,29.4012,-89.0355,1.0,31.379,11111222 
WAVCIS,ioos:station:WAVCIS:CSI16:2,2011-08-03T00:45:00Z,29.4012,-89.0355,1.0,31.129,11111222 
WAVCIS,ioos:station:WAVCIS:CSI16:2,2011-08-03T01:00:00Z,29.4012,-89.0355,1.0,30.625,11111222 
WAVCIS,ioos:station:WAVCIS:CSI16:2,2011-08-03T01:15:00Z,29.4012,-89.0355,1.0,30.492,11111222 
WAVCIS,ioos:station:WAVCIS:CSI16:2,2011-08-03T01:30:00Z,29.4012,-89.0355,1.0,30.155,11111222 
WAVCIS,ioos:station:WAVCIS:CSI16:2,2011-08-03T01:45:00Z,29.4012,-89.0355,1.0,29.285,11111222 
WAVCIS,ioos:station:WAVCIS:CSI16:2,2011-08-03T02:00:00Z,29.4012,-89.0355,1.0,28.953,11111222 
WAVCIS,ioos:station:WAVCIS:CSI16:2,2011-08-03T02:15:00Z,29.4012,-89.0355,1.0,30.76,11111222 
WAVCIS,ioos:station:WAVCIS:CSI16:2,2011-08-03T02:30:00Z,29.4012,-89.0355,1.0,30.772,11111222 
WAVCIS,ioos:station:WAVCIS:CSI16:2,2011-08-03T02:45:00Z,29.4012,-89.0355,1.0,31.396,11111222 
WAVCIS,ioos:station:WAVCIS:CSI16:2,2011-08-03T03:00:00Z,29.4012,-89.0355,1.0,30.476,11111222 
WAVCIS,ioos:station:WAVCIS:CSI16:2,2011-08-03T03:15:00Z,29.4012,-89.0355,1.0,30.804,11111222 
WAVCIS,ioos:station:WAVCIS:CSI16:2,2011-08-03T03:30:00Z,29.4012,-89.0355,1.0,31.61,11111222 
WAVCIS,ioos:station:WAVCIS:CSI16:2,2011-08-03T03:45:00Z,29.4012,-89.0355,1.0,32.594,11111222 
WAVCIS,ioos:station:WAVCIS:CSI16:2,2011-08-03T04:00:00Z,29.4012,-89.0355,1.0,34.655,11111222 
WAVCIS,ioos:station:WAVCIS:CSI16:2,2011-08-03T04:15:00Z,29.4012,-89.0355,1.0,34.69,11111222 
WAVCIS,ioos:station:WAVCIS:CSI16:2,2011-08-03T04:30:00Z,29.4012,-89.0355,1.0,34.71,11111222 
WAVCIS,ioos:station:WAVCIS:CSI16:2,2011-08-03T04:45:00Z,29.4012,-89.0355,1.0,34.628,11111222 
WAVCIS,ioos:station:WAVCIS:CSI16:2,2011-08-03T05:00:00Z,29.4012,-89.0355,1.0,34.714,11111222 
WAVCIS,ioos:station:WAVCIS:CSI16:2,2011-08-03T05:15:00Z,29.4012,-89.0355,1.0,34.648,11111222 
WAVCIS,ioos:station:WAVCIS:CSI16:2,2011-08-03T05:30:00Z,29.4012,-89.0355,1.0,34.742,11111222 
WAVCIS,ioos:station:WAVCIS:CSI16:2,2011-08-03T05:45:00Z,29.4012,-89.0355,1.0,34.77,11111222 
WAVCIS,ioos:station:WAVCIS:CSI16:2,2011-08-03T06:00:00Z,29.4012,-89.0355,1.0,34.764,11111222 
WAVCIS,ioos:station:WAVCIS:CSI16:2,2011-08-03T06:15:00Z,29.4012,-89.0355,1.0,34.761,11111222 
WAVCIS,ioos:station:WAVCIS:CSI16:2,2011-08-03T06:30:00Z,29.4012,-89.0355,1.0,34.634,11111222 
WAVCIS,ioos:station:WAVCIS:CSI16:2,2011-08-03T06:45:00Z,29.4012,-89.0355,1.0,34.602,11111222 
WAVCIS,ioos:station:WAVCIS:CSI16:2,2011-08-03T07:00:00Z,29.4012,-89.0355,1.0,34.688,11111222 
WAVCIS,ioos:station:WAVCIS:CSI16:2,2011-08-03T07:15:00Z,29.4012,-89.0355,1.0,34.704,11111222 
WAVCIS,ioos:station:WAVCIS:CSI16:2,2011-08-03T07:30:00Z,29.4012,-89.0355,1.0,34.727,11111222 
WAVCIS,ioos:station:WAVCIS:CSI16:2,2011-08-03T07:45:00Z,29.4012,-89.0355,1.0,34.718,11111222 
WAVCIS,ioos:station:WAVCIS:CSI16:2,2011-08-03T08:00:00Z,29.4012,-89.0355,1.0,34.756,11111222 
WAVCIS,ioos:station:WAVCIS:CSI16:2,2011-08-03T08:15:00Z,29.4012,-89.0355,1.0,35.164,11111222 
WAVCIS,ioos:station:WAVCIS:CSI16:2,2011-08-03T08:30:00Z,29.4012,-89.0355,1.0,35.071,11111222 
WAVCIS,ioos:station:WAVCIS:CSI16:2,2011-08-03T08:45:00Z,29.4012,-89.0355,1.0,34.977,11111222 
WAVCIS,ioos:station:WAVCIS:CSI16:2,2011-08-03T09:00:00Z,29.4012,-89.0355,1.0,35.103,11111222 
WAVCIS,ioos:station:WAVCIS:CSI16:2,2011-08-03T09:15:00Z,29.4012,-89.0355,1.0,35.012,11111222 
WAVCIS,ioos:station:WAVCIS:CSI16:2,2011-08-03T09:30:00Z,29.4012,-89.0355,1.0,34.889,11111222 
WAVCIS,ioos:station:WAVCIS:CSI16:2,2011-08-03T09:45:00Z,29.4012,-89.0355,1.0,34.912,11111222 
WAVCIS,ioos:station:WAVCIS:CSI16:2,2011-08-03T10:00:00Z,29.4012,-89.0355,1.0,34.912,11111222 
WAVCIS,ioos:station:WAVCIS:CSI16:2,2011-08-03T10:15:00Z,29.4012,-89.0355,1.0,34.967,11111222 
WAVCIS,ioos:station:WAVCIS:CSI16:2,2011-08-03T10:30:00Z,29.4012,-89.0355,1.0,35.003,11111222 
WAVCIS,ioos:station:WAVCIS:CSI16:2,2011-08-03T10:45:00Z,29.4012,-89.0355,1.0,34.754,11111222 
WAVCIS,ioos:station:WAVCIS:CSI16:2,2011-08-03T11:00:00Z,29.4012,-89.0355,1.0,34.894,11111222 
WAVCIS,ioos:station:WAVCIS:CSI16:2,2011-08-03T11:15:00Z,29.4012,-89.0355,1.0,32.708,11111222 
WAVCIS,ioos:station:WAVCIS:CSI16:2,2011-08-03T11:30:00Z,29.4012,-89.0355,1.0,34.321,11111222 
WAVCIS,ioos:station:WAVCIS:CSI16:2,2011-08-03T11:45:00Z,29.4012,-89.0355,1.0,32.46,11111222 
WAVCIS,ioos:station:WAVCIS:CSI16:2,2011-08-03T12:00:00Z,29.4012,-89.0355,1.0,32.404,11111222 
WAVCIS,ioos:station:WAVCIS:CSI16:2,2011-08-03T12:15:00Z,29.4012,-89.0355,1.0,33.173,11111222 
WAVCIS,ioos:station:WAVCIS:CSI16:2,2011-08-03T12:30:00Z,29.4012,-89.0355,1.0,32.735,11111222 
WAVCIS,ioos:station:WAVCIS:CSI16:2,2011-08-03T12:45:00Z,29.4012,-89.0355,1.0,32.314,11111222 
WAVCIS,ioos:station:WAVCIS:CSI16:2,2011-08-03T13:00:00Z,29.4012,-89.0355,1.0,31.807,11111222 
WAVCIS,ioos:station:WAVCIS:CSI16:2,2011-08-03T13:15:00Z,29.4012,-89.0355,1.0,32.951,11111222 
WAVCIS,ioos:station:WAVCIS:CSI16:2,2011-08-03T13:30:00Z,29.4012,-89.0355,1.0,33.484,11111222 
WAVCIS,ioos:station:WAVCIS:CSI16:2,2011-08-03T13:45:00Z,29.4012,-89.0355,1.0,33.188,11111222 
WAVCIS,ioos:station:WAVCIS:CSI16:2,2011-08-03T14:00:00Z,29.4012,-89.0355,1.0,33.927,11111222 
WAVCIS,ioos:station:WAVCIS:CSI16:2,2011-08-03T14:15:00Z,29.4012,-89.0355,1.0,33.952,11111222 
WAVCIS,ioos:station:WAVCIS:CSI16:2,2011-08-03T14:30:00Z,29.4012,-89.0355,1.0,34.154,11111222 
WAVCIS,ioos:station:WAVCIS:CSI16:2,2011-08-03T14:45:00Z,29.4012,-89.0355,1.0,34.463,11111222 
WAVCIS,ioos:station:WAVCIS:CSI16:2,2011-08-03T15:00:00Z,29.4012,-89.0355,1.0,33.433,11111222 
WAVCIS,ioos:station:WAVCIS:CSI16:2,2011-08-03T15:15:00Z,29.4012,-89.0355,1.0,34.517,11111222 